Simultaneous Nadir Overpasses (SNOs) Predictions

Prediction of SNOs between FY3D and NOAA-19 Satellite Orbit:

Table of predicted SNOs for the next 14.0 days since TLE Epoch: 9/16/2023
Index Date (FY3D) Time (FY3D) Lat,Lon (FY3D) SZA (FY3D ) Date (NOAA-19) Time (NOAA-19) Lat,Lon (NOAA-19) SZA (NOAA-19 ) Distance(km) Time Diff (sec)
1 09/23/2023 10:19:47 76.09, 19.33 76.11 09/23/2023 10:18:38 76.10, 17.24 76.16 55.89 69
2 09/23/2023 11:10:39 -76.38,-174.41 103.58 09/23/2023 11:09:36 -76.37,-174.49 103.58 2.50 63
3 09/23/2023 12:01:24 76.39, -7.14 76.45 09/23/2023 12:00:29 76.40, -7.11 76.46 1.04 55
4 09/23/2023 12:52:10 -76.41, 160.10 103.52 09/23/2023 12:51:33 -76.41, 160.15 103.52 1.33 37
5 09/23/2023 13:42:56 76.42, -32.63 76.51 09/23/2023 13:42:28 76.39, -32.63 76.49 3.23 28
6 09/23/2023 14:33:41 -76.39, 134.78 103.51 09/23/2023 14:33:32 -76.40, 134.63 103.50 4.09 9
7 09/23/2023 15:24:27 76.40, -57.95 76.52 09/23/2023 15:24:26 76.43, -57.98 76.55 2.77 1
8 09/23/2023 16:15:13 -76.42, 109.30 103.45 09/23/2023 16:15:30 -76.43, 109.28 103.44 1.43 17
9 09/23/2023 17:05:59 76.43, -83.43 76.58 09/23/2023 17:06:25 76.42, -83.51 76.57 2.40 26
10 09/23/2023 17:56:45 -76.45, 83.81 103.39 09/23/2023 17:57:29 -76.43, 83.75 103.42 3.11 44
11 09/23/2023 18:47:31 76.46,-108.92 76.64 09/23/2023 18:48:23 76.46,-108.86 76.63 1.79 52
12 09/23/2023 19:38:17 -76.48, 58.32 103.33 09/23/2023 19:39:27 -76.46, 58.40 103.36 2.79 70
13 09/23/2023 20:29:07 76.67,-135.10 76.89 09/23/2023 20:30:18 76.62,-133.68 76.81 36.68 71



Historial Predications of SNOs between FY3D and NOAA-19
